This demonstration page uses our WeatherBlox Daily Observations layout. Learn more.

40.92945, -100.16068

Hourly Observations for May 19, 2017

Temp ( °F °C ) Dew Point ( °F °C ) Humidity (%) Winds ( mph kmh ) Pressure ( in mb ) Visibility ( mi km ) Precip ( " mm )
12:15 am 00:15 Cloudy 51 10.5 48 9 91 91 ENE 14 22 29.97 1015 10 16.09344 0 0
12:35 am 00:35 Cloudy 51 10.5 48 9 91 91 ENE 16 26 29.97 1015 10 16.09344 0 0
12:55 am 00:55 Cloudy 51 10.3 48 9 92 92 ENE 17 28 29.97 1015 10 16.09344 0 0
1:15 am 01:15 Cloudy 51 10.4 48 9 91 91 ENE 17 28 29.97 1015 10 16.09344 0 0
1:35 am 01:35 Cloudy 51 10.3 48 9 92 92 NE 16 26 29.97 1015 10 16.09344 0 0
1:55 am 01:55 Cloudy 51 10.3 48 9.1 92 92 NE 12 19 29.97 1015 10 16.09344 0 0
2:15 am 02:15 Cloudy 50 10.1 48 9 93 93 NE 13 20 29.97 1015 7 11.265408 0 0
2:35 am 02:35 Cloudy 50 10 48 9 94 94 NE 12 19 29.97 1015 7 11.265408 0 0
2:55 am 02:55 Cloudy 50 10 48 9 94 94 NE 12 19 29.97 1015 10 16.09344 0 0
3:15 am 03:15 Cloudy 50 10 48 8.8 92 92 NE 9 15 29.97 1015 10 16.09344 0 0
3:35 am 03:35 Cloudy 50 10 48 8.8 92 92 NE 12 19 29.97 1015 7 11.265408 0 0
3:55 am 03:55 Cloudy 50 10 48 8.8 92 92 NE 13 20 29.97 1015 7 11.265408 0 0
4:15 am 04:15 Cloudy with Drizzle 50 9.8 48 8.8 94 94 NE 8 13 29.97 1015 5 8.04672 0 0
4:35 am 04:35 Cloudy with Drizzle 49 9.7 48 8.7 94 94 NE 7 11 30.03 1017 4 6.437376 0.01 0.254
4:55 am 04:55 Cloudy with Light Drizzle 49 9.6 48 8.7 94 94 NE 12 19 30.03 1017 4 6.437376 0.02 0.508
5:15 am 05:15 Cloudy with Light Drizzle 49 9.5 47 8.6 94 94 NE 13 20 30.03 1017 5 8.04672 0 0
5:35 am 05:35 Cloudy 49 9.5 47 8.5 94 94 NE 13 20 30 1016 10 16.09344 0 0
5:55 am 05:55 Cloudy 49 9.2 47 8.2 94 94 NE 14 22 30 1016 10 16.09344 0 0
6:15 am 06:15 Cloudy 49 9.2 47 8.1 93 93 ENE 13 20 30 1016 10 16.09344 0 0
6:35 am 06:35 Cloudy 49 9.2 47 8.1 93 93 NE 14 22 30.03 1017 7 11.265408 0 0
6:55 am 06:55 Cloudy 49 9.2 46 8 92 92 ENE 12 19 30.03 1017 10 16.09344 0 0
7:15 am 07:15 Cloudy 49 9.2 46 8 92 92 NE 13 20 30 1016 10 16.09344 0 0
7:35 am 07:35 Cloudy 49 9.2 46 8 92 92 ENE 14 22 30.03 1017 10 16.09344 0 0
7:55 am 07:55 Cloudy 49 9.2 46 8 92 92 NE 15 24 30.03 1017 10 16.09344 0 0
8:15 am 08:15 Cloudy 48 9.1 46 7.7 91 91 NE 14 22 30.03 1017 10 16.09344 0 0
8:35 am 08:35 Cloudy 48 9.1 46 7.5 90 90 ENE 14 22 30.03 1017 10 16.09344 0 0
8:55 am 08:55 Cloudy 48 9.1 46 7.5 90 90 NE 18 30 30.03 1017 10 16.09344 0 0
9:15 am 09:15 Cloudy 48 9 46 7.5 90 90 NE 17 28 30.03 1017 10 16.09344 0 0
9:35 am 09:35 Cloudy 49 9.3 46 7.6 89 89 NE 16 26 30.03 1017 10 16.09344 0 0
9:55 am 09:55 Cloudy 49 9.5 46 7.9 90 90 NE 15 24 30.03 1017 7 11.265408 0 0
10:15 am 10:15 Cloudy 49 9.5 45 7.3 86 86 NE 17 28 30.06 1018 10 16.09344 0 0
10:35 am 10:35 Cloudy 48 9.1 45 7 87 87 ENE 15 24 30.06 1018 10 16.09344 0 0
10:55 am 10:55 Cloudy with Nearby Thunderstorms 49 9.5 45 7.2 86 86 ENE 14 22 30.06 1018 10 16.09344 0 0
11:15 am 11:15 Cloudy 50 10 46 7.6 85 85 NE 15 24 30.06 1018 10 16.09344 0 0
11:35 am 11:35 Cloudy 49 9.6 45 7.3 86 86 ENE 16 26 30.06 1018 10 16.09344 0 0
11:55 am 11:55 Cloudy 50 9.9 46 7.5 85 85 NE 14 22 30.06 1018 10 16.09344 0 0
12:15 pm 12:15 Cloudy with Light Rain 49 9.6 45 7.2 85 85 NNE 16 26 30.06 1018 10 16.09344 0 0
12:35 pm 12:35 Cloudy 49 9.5 45 7.1 85 85 NE 15 24 30.06 1018 10 16.09344 0 0
12:55 pm 12:55 Cloudy with Rain 49 9.3 45 7.3 87 87 NNE 14 22 30.03 1017 7 11.265408 0.02 0.508
1:15 pm 13:15 Cloudy with Light Rain 49 9.4 46 7.7 89 89 N 25 41 29.94 1014 5 8.04672 0.03 0.762
1:35 pm 13:35 Cloudy with Light Rain 49 9.7 47 8.1 90 90 N 20 31 29.94 1014 10 16.09344 0.03 0.762
1:55 pm 13:55 Cloudy with Light Drizzle 49 9.6 46 7.7 88 88 NNE 17 28 30 1016 10 16.09344 0.03 0.762
2:15 pm 14:15 Cloudy 49 9.5 45 7.2 86 86 NNE 20 31 30 1016 10 16.09344 0 0
2:35 pm 14:35 Cloudy with Light Rain 48 9.1 45 7 87 87 NNE 10 17 30.03 1017 10 16.09344 0.01 0.254
2:55 pm 14:55 Cloudy with Rain 49 9.2 46 7.5 89 89 NNE 17 28 30 1016 7 11.265408 0.03 0.762
3:15 pm 15:15 Cloudy with Light Rain 48 8.9 45 7.2 89 89 NNE 18 30 30 1016 10 16.09344 0 0
3:35 pm 15:35 Cloudy 47 8.5 44 6.8 89 89 NE 15 24 30.03 1017 10 16.09344 0.01 0.254
3:55 pm 15:55 Cloudy with Light Rain 47 8.5 44 6.7 89 89 NE 16 26 30.03 1017 10 16.09344 0.01 0.254
4:15 pm 16:15 Cloudy with Light Rain 47 8.5 44 6.8 89 89 NNE 14 22 30.03 1017 10 16.09344 0.02 0.508
4:35 pm 16:35 Cloudy with Rain 47 8.5 45 7 90 90 NE 15 24 30 1016 5 8.04672 0.06 1.524
4:55 pm 16:55 Cloudy with Light Rain 47 8.5 45 7 90 90 NE 15 24 30 1016 10 16.09344 0.09 2.286
5:15 pm 17:15 Cloudy with Rain 47 8.5 45 7.1 91 91 NE 13 20 30 1016 7 11.265408 0.03 0.762
5:35 pm 17:35 Cloudy with Rain 47 8.3 45 7 92 92 NE 9 15 30.06 1018 5 8.04672 0.09 2.286
5:55 pm 17:55 Cloudy with Heavy Rain 47 8.2 45 7 92 92 NNE 10 17 30.06 1018 3 4.828032 0.18 4.572
6:15 pm 18:15 Cloudy with Rain 47 8.1 45 7 93 93 NNE 12 19 30.06 1018 5 8.04672 0.05 1.27
6:35 pm 18:35 Cloudy with Rain 47 8.1 45 7.1 93 93 N 13 20 30.03 1017 3 4.828032 0.11 2.794
6:55 pm 18:55 Cloudy with Rain 47 8.1 45 7.1 93 93 N 17 28 30 1016 5 8.04672 0.15 3.81
7:15 pm 19:15 Cloudy with Light Rain 47 8.1 45 7 93 93 NNE 16 26 30 1016 10 16.09344 0.01 0.254
7:35 pm 19:35 Cloudy 46 8 44 6.7 92 92 NNE 17 28 30 1016 10 16.09344 0.01 0.254
7:55 pm 19:55 Cloudy 46 7.8 44 6.5 92 92 NNE 14 22 30 1016 10 16.09344 0.01 0.254
8:15 pm 20:15 Cloudy 46 7.8 44 6.4 91 91 NNE 14 22 30 1016 10 16.09344 0 0
8:35 pm 20:35 Cloudy 46 7.6 43 6.2 91 91 NNE 12 19 30 1016 10 16.09344 0 0
8:55 pm 20:55 Cloudy 46 7.6 43 6.1 90 90 NNE 16 26 30 1016 10 16.09344 0 0
9:15 pm 21:15 Cloudy 46 7.6 43 6 90 90 NNE 15 24 30 1016 10 16.09344 0 0
9:35 pm 21:35 Cloudy with Drizzle 46 7.5 43 6.1 91 91 NNE 9 15 30 1016 7 11.265408 0 0
9:55 pm 21:55 Cloudy with Light Rain 45 7.3 43 6.1 92 92 NNE 13 20 30 1016 5 8.04672 0.01 0.254
10:15 pm 22:15 Cloudy with Light Rain 45 7.1 43 6 93 93 NNE 14 22 30 1016 5 8.04672 0.02 0.508
10:35 pm 22:35 Cloudy with Drizzle 45 7.1 43 6.1 93 93 N 10 17 30.03 1017 5 8.04672 0.03 0.762
10:55 pm 22:55 Cloudy with Light Drizzle 45 7 43 5.9 93 93 NNE 15 24 30.03 1017 7 11.265408 0.03 0.762
11:15 pm 23:15 Cloudy 44 6.8 42 5.5 92 92 NNE 14 22 30.03 1017 10 16.09344 0 0
11:35 pm 23:35 Cloudy with Light Drizzle 44 6.8 42 5.6 92 92 NNE 13 20 30.03 1017 7 11.265408 0 0
11:55 pm 23:55 Cloudy with Drizzle 44 6.7 42 5.7 93 93 NNE 8 13 30.06 1018 4 6.437376 0.01 0.254

Powered by AerisWeather